Dewpoint
29 28 28 29 29 30 31 32 34 35 34 35 35 35 35 36 37 38 42 42 44 45 47 49 50 52 56 58 63 65 64 63
28 28 28 29 30 30 31 32 33 32 32 32 33 33 34 35 36 38 40 42 43 44 46 49 50 51 54 56 58 63 64 64
27 28 28 29 30 30 30 31 31 31 30 31 33 34 35 36 37 37 40 41 43 43 45 47 49 51 52 56 58 57 58 63
26 27 28 29 29 29 30 30 31 31 32 31 32 33 34 34 35 36 38 41 43 45 44 46 48 50 50 51 55 56 58 58
26 26 27 28 29 30 30 31 30 30 31 30 30 31 31 33 35 37 38 41 43 45 46 47 47 48 48 51 51 54 60 60
26 26 27 28 28 29 30 30 30 30 30 30 30 32 32 32 34 36 36 38 41 43 45 47 48 50 50 49 52 54 59 61
26 26 27 27 28 29 30 30 30 30 30 29 31 31 31 31 33 33 34 36 38 40 41 42 45 47 49 51 53 55 56 61
25 25 26 27 28 29 29 30 29 29 29 29 31 30 31 31 31 32 33 34 35 37 40 42 44 47 50 52 54 55 55 60
25 25 26 27 28 29 30 29 29 29 29 29 30 29 31 30 31 32 33 33 34 36 38 40 41 43 46 54 55 56 59 60
25 25 27 28 28 29 30 29 29 30 30 29 29 29 28 29 29 31 33 32 33 34 35 37 38 39 42 48 49 51 51 55
26 26 27 27 28 29 29 30 30 29 29 29 29 28 27 28 28 28 30 32 32 32 32 33 34 35 37 40 42 42 42 42
25 26 27 27 28 28 28 29 29 29 29 29 29 28 27 27 27 28 30 31 32 32 31 30 31 32 34 35 37 37 37 38
24 25 25 26 27 27 26 26 26 27 29 28 28 29 28 27 27 28 29 30 30 31 31 29 29 30 31 32 32 33 33 34
24 25 24 24 26 27 26 26 25 25 26 26 25 26 26 26 26 27 28 29 29 28 30 29 29 29 29 29 29 30 30 31
23 24 25 25 25 26 26 25 25 24 25 22 24 25 23 23 26 26 26 28 28 26 27 28 27 28 27 28 28 27 27 28
19 19 20 24 25 24 24 22 21 22 22 21 20 20 22 19 21 23 24 23 27 26 26 26 27 27 27 26 26 26 26 26
18 18 19 20 19 20 20 20 19 18 16 16 19 17 17 19 18 19 18 18 18 22 22 22 24 25 25 24 23 24 23 23
20 21 22 22 21 20 20 18 18 18 17 16 15 15 14 15 15 16 17 17 16 17 18 19 19 19 20 21 20 17 19 20
22 25 24 24 23 22 22 18 18 18 17 16 15 15 14 14 14 15 15 15 15 15 16 17 17 15 19 17 15 12 15 18
Lifted_Index
11 12 12 12 13 13 13 13 13 14 13 13 13 12 12 13 13 14 14 14 14 13 13 13 12 10 6 3 -0 -2 -3 -3
11 12 12 12 12 12 13 13 13 14 13 13 13 13 13 13 14 15 15 15 14 14 13 13 12 10 7 4 2 -1 -2 -2
11 11 11 12 12 12 13 13 14 14 14 14 14 14 14 15 15 16 16 16 15 15 14 13 13 11 9 7 4 2 -0 -1
10 10 11 11 12 12 13 13 14 15 15 15 15 15 15 16 16 17 17 17 16 15 14 13 12 11 10 8 6 4 1 -0
9 9 10 11 12 13 13 14 14 15 15 15 15 15 15 16 18 18 18 17 15 14 13 12 10 10 9 9 8 5 2 0
9 10 10 11 12 12 13 13 13 14 15 15 15 15 15 17 18 18 17 16 14 13 12 11 10 9 8 8 7 5 2 -0
9 10 10 11 11 12 12 12 12 13 14 15 15 15 16 16 16 16 15 14 13 12 11 11 10 8 7 6 6 5 2 -1
9 9 10 10 11 11 11 11 11 12 13 14 15 16 17 17 17 17 16 14 12 12 11 10 9 8 6 5 5 4 1 -1
8 9 10 11 11 12 12 12 12 12 12 13 15 17 19 19 19 19 18 15 14 13 11 9 7 6 5 4 4 3 1 -1
8 8 10 11 12 13 13 13 13 13 13 13 15 17 19 19 20 20 19 17 15 13 11 8 5 4 4 3 3 2 1 -0
7 8 10 12 14 14 15 15 15 15 15 14 15 16 17 18 19 19 19 18 16 14 12 8 4 3 3 3 2 1 1 -0
7 8 10 13 14 15 16 16 16 17 17 17 16 16 16 17 17 18 19 18 17 16 13 9 6 5 6 5 3 2 1 0
7 8 11 13 14 15 16 16 16 17 18 18 18 17 17 17 17 17 18 17 17 16 14 11 9 9 10 9 6 4 3 2
7 8 11 13 14 15 15 16 16 17 18 18 19 19 19 19 18 18 18 17 17 16 15 13 12 12 12 11 10 8 7 6
7 9 11 14 15 15 15 16 16 17 17 17 18 19 20 20 20 19 19 19 18 17 16 15 15 15 14 14 13 12 11 10
7 9 12 14 15 15 15 16 16 16 16 16 17 18 19 19 20 20 20 20 20 20 19 18 19 19 19 18 17 15 14 15
8 10 13 14 15 15 15 16 17 16 16 16 17 17 18 18 19 19 19 19 20 20 20 20 21 22 22 21 20 18 17 17
9 11 13 15 15 15 16 17 17 17 16 16 17 17 17 17 18 18 18 18 19 19 20 20 21 22 22 22 21 20 20 19
10 11 14 15 16 16 16 17 17 17 16 16 17 17 17 17 17 18 18 18 18 19 20 20 20 21 21 21 21 22 21 20